Marc Fuchs

Olheiro - VfL Wolfsburg
3 Dez 2028
Domingo
Processo

Personalidade

Adaptabilidade (15) Ambição (14) Controvérsia (14) Lealdade (9) Pressão (15) Profissionalismo (13) Espírito Esportivo (1) Temperamento (20)

Perfil

Estilo de Treinamento Democrático
Licença Continental Pro
Determinação 13
Gestão de Pessoas 8
Motivação 7
Disciplina 13
Satisfação no Trabalho
100%
Fadiga
0%
Função Olheiro
Salário 98.1K p/s
Contrato 14.03.2029

Desempenho

Comportamento Bom
Eficácia do Treinamento
58%
Desenvolvimento do Jogador
70%
Prevenção de Lesões
30%
Implementação Tática
70%

Eventos Recentes

Participou de uma reunião de recrutamento agora
Recomendou um alvo de transferência agora
Avaliou um jogador agora
Avaliou um jogador 7d atrás
Avaliou um jogador 7d atrás
Observou uma partida 7d atrás
Avaliou um jogador 7d atrás
Avaliou um jogador 7d atrás

Monitorando agora

113
Jogador Clube Status Habilidade Confiança Observado Última observação Último voto
Álvaro Montoro Botafogo Ativo 135 / 138 40% 7 01.12.2028 -
Estêvão Portsmouth Ativo 157 / 154 40% 2 01.12.2028 -
Harry Gray Harrogate Town Ativo 131 / 138 40% 1 01.12.2028 -
Luis Otávio Orlando City Ativo 107 / 126 40% 3 28.11.2028 -
Babis Kostoulas Oxford United Ativo 146 / 155 40% 2 28.11.2028 -
Honest Ahanor Atalanta Ativo 146 / 144 40% 13 26.11.2028 -
Matías Arias Vélez Ativo 115 / 122 40% 4 26.11.2028 -
Ayyoub Bouaddi Stoke City Ativo 152 / 157 40% 2 26.11.2028 -
Lucca São Paulo Ativo 119 / 122 40% 3 24.11.2028 -
Sebastian Rodriguez Houston Dynamo Ativo 114 / 124 40% 2 24.11.2028 -
Mikey Moore Stockport County Ativo 147 / 146 40% 1 24.11.2028 -
Olivier Mambwa Young Boys Ativo 112 / 122 40% 8 23.11.2028 -
Lisandro Piñero Banfield Ativo 126 / 124 40% 3 22.11.2028 -
Rio Ngumoha Plymouth Argyle Ativo 146 / 148 40% 2 22.11.2028 -
Jacob Peter Hödl Sturm Graz Ativo 123 / 126 40% 1 22.11.2028 -
Aarón Ochoa Málaga Ativo 126 / 133 40% 2 19.11.2028 -
Santiago Segovia Rosario Central Ativo 109 / 121 40% 1 19.11.2028 -
Franco Mastantuono Córdoba Ativo 151 / 152 40% 1 18.11.2028 -
Mihajlo Cvetković Club Brugge Ativo 130 / 134 40% 1 18.11.2028 -
Lennart Karl TSG Hoffenheim Ativo 138 / 154 40% 1 15.11.2028 -
Celías Ingenthron Platense Ativo 112 / 130 40% 3 13.11.2028 -
Valentino Huertas Morón Ativo 102 / 109 40% 1 13.11.2028 -
Ethan Nwaneri Arsenal Ativo 159 / 160 40% 1 12.11.2028 -
Geovany Quenda Watford Ativo 149 / 156 40% 1 09.11.2028 -
Joris Boguo Wolfsberger AC Ativo 104 / 110 40% 1 07.11.2028 -
Ibrahim Mbaye Queens Park Rangers Ativo 147 / 144 40% 3 06.11.2028 -
Tahiel Peralta Racing Club Ativo 108 / 116 40% 1 06.11.2028 -
Johannes Moser Sturm Graz Ativo 107 / 119 40% 1 06.11.2028 -
Peyton Miller New England Revolution Ativo 107 / 119 40% 1 06.10.2028 -
Ryunosuke Sato Eibar Ativo 133 / 138 40% 1 04.10.2028 -
Matias Siltanen Malmo FF Ativo 131 / 133 40% 3 02.10.2028 -
Ramazan Bağdat Kairat Ativo 106 / 112 40% 1 02.10.2028 -
Facundo Krüger Temperley Ativo 117 / 113 40% 1 28.08.2028 -
Endrick Boca Juniors Ativo 164 / 162 40% 1 28.08.2028 -
Thomas Schlupp BA All Stars Ativo 114 / 109 40% 1 28.08.2028 -
Mathias Honsak Heidenheim Perdido 135 / 134 76% 1 21.08.2028 Aprovar
Adam Hložek TSG Hoffenheim Perdido 146 / 145 76% 1 14.08.2028 Aprovar
Trey Nyoni Rotherham United Ativo 142 / 151 40% 6 08.08.2028 -
Shea Lacey Crystal Palace Ativo 143 / 141 40% 2 08.08.2028 -
Ryan McAidoo Oldham Athletic Ativo 133 / 132 40% 2 08.08.2028 -
Arnaud Kalimuendo Nottingham Forest Ativo 150 / 153 40% 1 05.07.2028 -
Brandon Thomas-Asante Blackpool Ativo 125 / 128 40% 1 05.07.2028 -
Iliman N'Diaye Everton Ativo 161 / 162 40% 2 04.07.2028 -
Ez Abde Betis Ativo 157 / 156 40% 1 04.07.2028 -
William Osula Wrexham Ativo 143 / 136 40% 1 03.07.2028 -
Christopher Nkunku AC Milan Ativo 168 / 162 40% 1 03.07.2028 -
Isaac Romero Sevilla Perdido 149 / 142 40% 1 26.06.2028 -
Yousef Salech Cardiff City Perdido 138 / 131 40% 1 26.06.2028 -
Rayan Hamburger SV Ativo 140 / 153 40% 1 18.06.2028 -
Saïd El Mala Köln Ativo 148 / 153 76% 1 03.06.2028 Aprovar
Tyler Fletcher Rotherham United Ativo 113 / 116 40% 3 31.05.2028 -
Kerim Alajbegović Modena Ativo 138 / 137 40% 1 31.05.2028 -
Ben Broggio Mansfield Town Ativo 114 / 120 40% 1 31.05.2028 -
Daniel Banjaqui Benfica Ativo 119 / 126 40% 11 29.05.2028 -
Jorge Salinas Racing Santander Ativo 136 / 139 40% 8 29.05.2028 -
Christos Mouzakitis Hull City Ativo 132 / 141 40% 3 28.05.2028 -
Giovanni Leoni Lincoln City Ativo 142 / 141 40% 7 27.05.2028 -
Héctor Fort Real Sociedad Ativo 147 / 142 40% 4 25.05.2028 -
Jan Bürger Northampton Town Ativo 125 / 128 40% 2 25.05.2028 -
Josh Nichols Oldham Athletic Ativo 123 / 122 40% 7 23.05.2028 -
Givairo Read Feyenoord Ativo 152 / 156 40% 6 22.05.2028 -
Martim Cunha Porto Ativo 109 / 110 40% 6 22.05.2028 -
Marc Bernal Sevilla Ativo 151 / 156 40% 6 20.05.2028 -
Riquelme Thompson-Jones Accrington Stanley Ativo 107 / 115 40% 5 20.05.2028 -
Andrija Bulatović Chamois Niortais Ativo 129 / 132 40% 4 19.05.2028 -
Pau Cubarsí Real Sociedad Ativo 161 / 167 40% 11 18.05.2028 -
Bernardo Lima Porto Ativo 109 / 115 40% 4 18.05.2028 -
Ayden Heaven Portsmouth Ativo 147 / 150 40% 7 18.05.2028 -
Jorthy Mokio ADO Den Haag Ativo 130 / 137 40% 6 06.05.2028 -
Josh Acheampong Everton Ativo 137 / 145 40% 3 06.04.2028 -
Izan Merino Málaga Ativo 125 / 131 40% 2 05.04.2028 -
Prosper Peter Olympique Lyonnais Ativo 111 / 123 40% 1 29.06.2027 -
Finn Azaz Southampton Ativo 130 / 132 40% 1 18.05.2027 -
Georges Mikautadze Villarreal Ativo 152 / 151 40% 1 18.05.2027 -
Joe Gelhardt Hull City Ativo 138 / 137 40% 1 18.05.2027 -
Manu Koné AS Roma Ativo 167 / 164 40% 2 15.05.2027 -
Chemsdine Talbi Sunderland Ativo 147 / 141 40% 2 13.05.2027 -
Roberto Fernández Braga Ativo 150 / 142 40% 6 11.05.2027 -
Kevin Fulham Ativo 146 / 150 40% 2 09.05.2027 -
Aimar Osasuna Ativo 148 / 148 40% 1 09.05.2027 -
Pablo Torre Mallorca Ativo 140 / 146 40% 1 08.05.2027 -
Jonathan Dubasin Osasuna Ativo 138 / 141 40% 1 08.05.2027 -
David Larrubia Málaga Ativo 139 / 133 40% 1 02.05.2027 -
Savinho Tottenham Ativo 153 / 152 40% 1 01.05.2027 -
Omar El Hilali Espanyol Ativo 145 / 154 40% 1 01.05.2027 -
Andrés Martín Racing Santander Perdido 144 / 132 40% 4 27.04.2027 -
Francisco Conceição Köln Ativo 151 / 156 40% 3 12.04.2027 -
Yeremy Pino Crystal Palace Ativo 156 / 151 40% 3 11.04.2027 -
Osame Sahraoui LOSC Lille Ativo 141 / 142 40% 1 06.04.2027 -
Pau Víctor Braga Ativo 135 / 140 40% 1 04.04.2027 -
Takefusa Kubo VfB Stuttgart Ativo 158 / 160 40% 2 31.03.2027 -
Geny Sporting CP Ativo 148 / 148 40% 2 31.03.2027 -
Mikel Jauregizar Athletic Bilbao Ativo 159 / 159 40% 3 21.03.2027 -
Alfon Sevilla Ativo 145 / 136 40% 1 10.03.2027 -
Petter Nosa Dahl Rapid Wien Ativo 124 / 120 40% 2 25.12.2026 -
Carlos Álvarez Club America Ativo 146 / 146 40% 1 25.12.2026 -
Oihan Sancet Athletic Bilbao Ativo 153 / 157 40% 3 20.12.2026 -
Christantus Uche Getafe Ativo 132 / 138 40% 1 20.12.2026 -
Sota Kitano Red Bull Salzburg Ativo 130 / 118 40% 2 16.12.2026 -
Yorbe Vertessen Red Bull Salzburg Ativo 127 / 127 40% 2 15.12.2026 -
Metinho Basel Ativo 126 / 127 40% 2 10.12.2026 -
João Pedro Chelsea Ativo 146 / 154 40% 1 10.12.2026 -
Moisés Caicedo Chelsea Ativo 161 / 165 40% 2 07.12.2026 -
Carlos Forbs Club Brugge Ativo 142 / 137 40% 1 27.11.2026 -
Oswin Appollis Orlando Pirates Ativo 125 / 120 40% 1 20.11.2026 -
Mattia Zanotti Young Boys Ativo 121 / 128 40% 1 09.11.2026 -
Matthias Seidl Rapid Wien Ativo 122 / 123 40% 1 31.10.2026 -
Amadou Onana Aston Villa Ativo 148 / 149 40% 1 26.10.2026 -
Michael Olise Bayern Munich Ativo 181 / 180 40% 1 23.10.2026 -
Maurits Kjærgaard Red Bull Salzburg Ativo 121 / 131 40% 1 20.10.2026 -
Felix Nmecha Borussia Dortmund Ativo 152 / 166 40% 1 04.08.2026 -
Frenkie de Jong Barcelona Ativo 156 / 167 40% 1 01.08.2026 -
Cody Gakpo Liverpool Ativo 153 / 161 40% 1 01.08.2026 -